Regional Weather Roundup
Issued by NWS

Home | Current Version | Previous Version | Graphics & Text | Print | Product List | Glossary Off
Versions: 1 2 3 4 5 6 7 8 9 10 11 12 13 14 15 16 17 18 19 20 21 22 23 24 25 26 27 28 29 30 31 32 33 34 35 36 37 38 39 40 41 42 43 44 45 46 47 48 49 50

008
ASUS43 KMPX 061310
RWRMN
WEATHER ROUNDUP FOR MINNESOTA
NATIONAL WEATHER SERVICE TWIN CITIES/CHANHASSEN MN
700 AM CST SAT FEB 06 2016


NOTE: "FAIR" INDICATES FEW OR NO CLOUDS BELOW 12,000 FEET WITH NO
SIGNIFICANT WEATHER AND/OR OBSTRUCTIONS TO VISIBILITY. N/A MEANS
CURRENT SKY AND/OR WEATHER CONDITIONS ARE NOT AVAILABLE.

MNZ060>063-068>070-061400-
   Twin Cities Metro

CITY           SKY/WX    TMP DP  RH WIND       PRES   REMARKS
TWIN CITIES    CLOUDY    26  22  84 S6        30.13F WCI  19
ST PAUL        CLOUDY    26  22  84 S5        30.14F WCI  20
CRYSTAL        CLOUDY    26  22  84 S7        30.11S WCI  18
LAKEVILLE      CLOUDY    25  23  93 S5        30.13S WCI  19
EDEN PRAIRIE   CLOUDY    26  22  84 S10       30.11F WCI  16
SOUTH ST PAUL  CLOUDY    26  22  84 S3        30.14S
LAKE ELMO      CLOUDY    27  23  86 SW6       30.14S WCI  20
$$
MNZ001>005-007-008-013>017-022>024-027-028-061400-
   Northwest Minnesota

CITY           SKY/WX    TMP DP  RH WIND       PRES   REMARKS
BEMIDJI        CLOUDY    20  19  93 S6        29.92F WCI  12
HALLOCK        CLOUDY    21  19  93 S12       29.84F WCI   9
ROSEAU         CLOUDY    19  16  86 S10       29.88F WCI   8
WARROAD        CLOUDY    19  16  86 S3        29.88F
THIEF RVR FALL CLOUDY    21  16  79 S8        29.88F WCI  12
CROOKSTON      CLOUDY    21  19  93 S12       29.89F WCI   9
FOSSTON        CLOUDY    19  18  93 S12       29.90F WCI   7
DETROIT LAKES  CLOUDY    21  21 100 SE8       29.93F WCI  12
MOORHEAD       PTCLDY    21  18  86 S12       29.92F WCI   9
PARK RAPIDS    CLOUDY    21  18  88 S7        29.94F WCI  12
MAHNOMEN       FAIR      22  18  85 SE8       29.90F WCI  13
$$
MNZ006-009>011-018-025>026-061400-
   North Central Minnesota

CITY           SKY/WX    TMP DP  RH WIND       PRES   REMARKS
BAUDETTE       CLOUDY    18  14  84 SE6       29.90F WCI  10
FLAG ISLAND    CLOUDY    18  16  93 SE7       29.90F WCI   8
INTL FALLS     CLOUDY    17  15  92 CALM      29.95F FOG
WASKISH        CLOUDY    21  19  93 S6        29.91F WCI  14
LONGVILLE      CLOUDY    19  18  93 SE6       29.98F WCI  11
GRAND RAPIDS   CLOUDY    19  16  86 S9        29.98F WCI   9
CRANE LAKE     CLOUDY     9   7  92 CALM      30.00S
ORR            CLOUDY    16  10  79 CALM      29.94F
COOK           CLOUDY    16  14  93 S2        29.97F
WALKER         CLOUDY    20  18  91 S7        29.94F WCI  12
$$
MNZ012-019>021-037-061400-
   Northeast Minnesota

CITY           SKY/WX    TMP DP  RH WIND       PRES   REMARKS
DULUTH         MOCLDY    19  15  84 W10       30.01F WCI   7
ELY            PTCLDY    16  14  93 CALM      29.98R
HIBBING        CLOUDY    13  12  96 CALM      29.98F
EVELETH        CLEAR     10   9  92 CALM      30.00S
DULUTH HARBOR  CLOUDY    21  18  86 SW6       30.07S WCI  14
TWO HARBORS    MOCLDY    18  12  79 W5        30.00F WCI  11
SILVER BAY     CLOUDY    18  16  93 CALM      30.00S
GRAND MARAIS     N/A     22  15  75 W3        30.03R
G MARAIS ARPRT CLOUDY    16  10  79 W6        29.95S WCI   7
$$
MNZ029>031-032-039>041-046>048-054>057-064-061400-
   West Central Minnesota

CITY           SKY/WX    TMP DP  RH WIND       PRES   REMARKS
FERGUS FALLS   CLOUDY    21  19  93 S9        29.99F WCI  11
WHEATON        CLOUDY    28  25  86 S12       29.98F WCI  18
MORRIS         PTCLDY    19  18  93 SE8       29.99F WCI   9
ALEXANDRIA     CLOUDY    22  19  89 S14       30.00F WCI   9
ELBOW LAKE     FAIR      19  18  96 S10       29.98F WCI   8
WADENA         CLOUDY    21  19  93 S6        29.96F WCI  14
GLENWOOD       CLOUDY    19  19 100 S6        30.03S WCI  11
APPLETON       PTCLDY    21  19  93 S5        30.03F WCI  15
BENSON         CLOUDY    21  19  93 CALM      30.04F
ORTONVILLE     CLEAR     27  21  80 S7        30.00F WCI  19
MADISON        CLOUDY    28  23  80 SW13      30.03F WCI  18
WILLMAR        FAIR      21  19  93 SE5       30.08S WCI  15
$$
MNZ033>034-036-042>043-049>051-058-059-061400-
   Central Minnesota

CITY           SKY/WX    TMP DP  RH WIND       PRES   REMARKS
ST CLOUD       CLOUDY    22  21  96 S7        30.07F WCI  13
SAUK CENTRE    FAIR      20  19  94 S7        30.03F WCI  11
PAYNESVILLE    CLOUDY    21  21  99 S5        30.06S WCI  14
AITKIN         PTCLDY    21  18  86 S6        30.01S WCI  14
PINE RIVER     CLOUDY    19  19 100 SE6       30.02F FOG     WCI  11
BRAINERD       CLOUDY    21  20  96 S9        30.01F FOG     WCI  11
STAPLES        CLOUDY    21  21 100 S6        29.99F WCI  14
LONG PRAIRIE   FAIR      21  19  93 S7        30.02F WCI  13
LITTLE FALLS   CLOUDY    23  21  93 SE7       30.04F WCI  15
LITCHFIELD     CLOUDY    19  19 100 CALM      30.08S
BUFFALO        PTCLDY    23  21  92 S7        30.10F WCI  14
MAPLE LAKE     CLOUDY    23  23  98 S6        30.09F FOG     WCI  16
$$
MNZ037-044-045-052-053-061400-
   East Central Minnesota

CITY           SKY/WX    TMP DP  RH WIND       PRES   REMARKS
PRINCETON      CLOUDY    25  21  86 S6        30.07F WCI  18
MORA           CLOUDY    25  21  86 SW7       30.08F WCI  17
CAMBRIDGE      CLOUDY    27  19  74 S7        30.07F WCI  19
RUSH CITY      CLOUDY    24  21  88 S6        30.09F WCI  17
MOOSE LAKE     CLOUDY    21  18  86 S5        30.03F WCI  15
HINCKLEY       CLOUDY    25  23  93 S8        30.07F WCI  16
CLOQUET        CLOUDY    19  16  86 S7        30.02S WCI  10
MCGREGOR       MOCLDY    21  19  93 S5        30.03S WCI  15
$$
MNZ071>073-080-081-089-090-097-098-061400-
   Southwest Minnesota

CITY           SKY/WX    TMP DP  RH WIND       PRES   REMARKS
MONTEVIDEO     CLOUDY    21  19  93 SW6       30.07F WCI  14
GRANITE FALLS  CLOUDY    24  21  89 S8        30.09S WCI  15
CANBY          CLOUDY    32  26  77 SW9       30.05F WCI  25
MARSHALL         N/A    N/A N/A N/A MISG        N/A
REDWOOD FALLS  CLOUDY    21  18  88 S7        30.10S WCI  12
OLIVIA         PTCLDY    21  18  86 S5        30.09R WCI  15
PIPESTONE        N/A     21  16  79 SW5       30.10S WCI  15
WINDOM         CLOUDY    21  21 100 SW6       30.11F FOG     WCI  14
WORTHINGTON    CLOUDY    19  18  93 SW13      30.13S WCI   7
JACKSON        FOG       25  21  86 SW12      30.12F VSB 3/4 WCI  14
TRACY          PTCLDY    26  23  87 SW16      30.08S WCI  14
SLAYTON        CLOUDY    22  22 100 SW12      30.09F WCI  10
$$
MNZ065>067-074>077-082>085-091>093-061400-
   South Central Minnesota

CITY           SKY/WX    TMP DP  RH WIND       PRES   REMARKS
MANKATO        CLOUDY    21  19  93 S9        30.13F VSB 1   WCI  11
NEW ULM        CLOUDY    18  18 100 S8        30.11F FOG     WCI   7
ST JAMES       PTCLDY    25  25 100 S9        30.12F FOG     WCI  15
FAIRMONT       CLOUDY    25  21  86 SW12      30.13F WCI  14
GLENCOE        CLOUDY    22  21  98 S6        30.10F WCI  14
FARIBAULT      CLOUDY    27  25  93 S7        30.14S WCI  19
OWATONNA       CLOUDY    27  23  86 SW9       30.14F WCI  17
WASECA         LGT SNOW  25  23  93 SW13      30.16S WCI  13
ALBERT LEA     CLOUDY    25  25 100 SW8       30.15F FOG     WCI  16
$$
MNZ078>079-086>088-094>096-061400-
   Southeast Minnesota

CITY           SKY/WX    TMP DP  RH WIND       PRES   REMARKS
ROCHESTER      CLOUDY    25  22  88 W10       30.15R WCI  15
RED WING       CLOUDY    27  21  80 W8        30.15S WCI  18
STANTON        CLOUDY    27  23  86 SW7       30.13F WCI  19
DODGE CENTER   CLOUDY    25  21  86 SW12      30.13F WCI  14
WINONA         CLOUDY    30  25  80 W6        30.19R WCI  24
AUSTIN         CLOUDY    25  25 100 SW8       30.16S WCI  16
PRESTON        CLOUDY    25  23  91 W8        30.16R WCI  16
$$
ABBREVIATIONS USED IN REMARKS
   TC - TEMPERATURES IN CELSIUS
  WCI - WIND CHILL INDEX
   HX - HEAT INDEX
  VSB - VISIBILITY
$$




USA.gov is the U.S. government's official web portal to all federal, state and local government web resources and services.